Theta_e
286 287 287 288 287 285 285 285 284 284 285 285 282 282 285 284 279 276 282 284 282 285 288 289 291 289 287 285 283 284 283 283 283 283 283 283 283 283 284 284 284 285 284 285 285 285 285 286 286 286 286 286 285 285 285 285 284 285 286 286 285 285 285 285 285 286 286 287 287 287 287 286 286 286 287 287 286 287 287 287 288 288 288 288 287 287 287
283 285 285 286 284 283 282 282 283 284 284 283 284 284 285 284 282 284 284 284 284 286 288 290 287 286 285 284 284 284 283 283 283 283 283 283 282 283 283 284 284 285 285 285 285 286 285 285 285 285 286 285 285 285 285 284 284 285 285 285 285 285 284 285 285 286 286 286 286 286 286 286 286 286 286 286 286 286 286 287 287 287 287 287 287 287 287
279 282 283 283 283 281 279 281 282 282 282 282 283 282 282 283 282 283 282 282 281 287 287 284 284 284 285 284 281 282 283 283 283 283 283 283 283 283 284 284 285 285 285 285 285 285 285 285 285 285 285 285 285 284 285 284 284 284 285 284 284 284 284 284 285 285 285 285 285 285 285 285 285 286 286 286 285 285 286 286 286 286 286 286 286 286 286
275 280 280 280 281 279 278 277 279 279 279 278 280 280 283 282 280 282 282 280 280 284 282 284 282 282 281 280 281 281 282 283 283 283 283 283 283 283 283 284 284 285 285 285 285 285 285 285 285 285 285 285 284 284 284 283 283 284 284 284 283 283 283 284 284 284 284 284 284 284 284 284 284 285 285 285 285 285 285 285 285 285 285 286 286 286 285
273 278 279 278 277 275 272 274 277 279 280 281 282 284 285 284 284 279 277 278 283 281 283 282 282 280 281 280 281 281 282 283 283 283 283 284 284 284 283 284 284 285 285 285 285 285 286 286 286 286 286 285 284 284 284 283 283 282 283 283 283 283 283 283 283 283 283 283 283 282 282 283 284 285 285 285 285 285 284 285 285 284 285 285 285 286 285
273 277 276 276 272 266 268 281 284 283 280 280 279 279 281 282 283 281 282 281 280 281 281 281 280 281 279 281 282 283 282 282 283 284 284 284 285 285 285 284 284 285 285 286 286 286 286 286 286 286 286 285 285 285 283 283 282 282 282 282 282 282 282 282 283 282 282 282 281 281 281 281 283 284 285 284 284 284 285 285 284 284 284 284 284 284 285
272 275 272 271 265 267 277 282 283 282 281 281 280 280 281 282 282 279 280 280 281 282 282 280 280 280 281 282 282 282 283 283 283 282 283 284 284 285 285 284 285 285 285 286 286 286 286 286 286 286 286 286 285 284 283 282 282 281 281 281 281 281 281 281 282 281 281 280 280 279 279 280 281 283 284 284 284 284 284 283 283 283 283 283 283 283 284
274 272 271 264 264 276 275 279 281 282 281 281 280 278 281 282 282 282 281 281 281 282 280 281 282 282 282 283 284 284 284 285 284 283 284 285 285 285 285 285 285 285 286 285 285 286 287 287 286 286 285 285 284 283 283 281 281 280 280 280 280 280 280 280 280 280 280 279 278 277 277 278 279 281 283 283 282 282 282 282 283 283 283 284 283 283 284
269 271 270 269 275 273 276 277 279 280 278 279 278 273 278 281 282 282 282 281 280 281 281 281 282 282 282 280 282 285 285 285 286 285 285 286 286 286 286 286 285 286 287 286 286 287 287 286 286 285 285 284 283 282 281 281 280 279 279 278 279 279 279 279 279 280 279 278 277 276 276 276 277 280 281 281 280 280 280 281 281 281 282 282 283 283 282
276 268 268 268 268 264 271 279 280 282 281 282 281 279 274 282 279 280 280 279 280 281 280 282 281 282 278 275 278 282 284 285 286 286 287 287 287 287 287 287 287 287 287 287 287 287 286 285 285 285 284 283 282 281 280 280 279 278 278 278 278 278 278 278 279 279 278 276 275 275 275 275 276 279 280 279 278 278 278 278 279 280 281 281 281 282 282
273 271 268 266 265 267 275 275 280 280 281 281 280 277 272 278 276 278 278 279 281 281 280 281 282 278 274 274 278 282 283 284 285 284 285 286 287 287 287 287 286 286 287 286 286 285 285 284 284 284 282 281 280 279 279 279 278 277 277 278 278 277 277 278 278 278 277 276 275 274 274 274 276 277 277 276 276 276 276 276 277 278 279 280 281 281 282
271 270 268 266 271 269 275 275 280 281 281 281 278 267 268 276 278 279 278 278 278 280 280 281 280 277 273 275 279 283 283 283 283 283 283 284 285 286 287 287 287 286 286 284 283 283 283 283 284 282 281 279 278 278 278 278 277 276 277 277 278 278 277 277 277 276 276 274 274 273 273 274 275 275 275 274 274 274 274 274 275 276 277 279 279 280 281
270 271 269 271 271 278 279 279 282 281 282 279 269 265 273 277 279 280 279 279 280 280 279 280 277 280 280 281 282 283 284 284 284 284 284 284 284 285 286 285 283 282 282 282 282 282 282 282 281 280 278 277 277 277 277 276 276 276 277 277 277 276 276 276 275 274 274 273 272 273 273 273 274 273 272 272 272 271 271 272 273 274 275 276 277 278 279
269 270 268 268 271 278 281 279 280 281 277 269 269 277 278 279 279 281 279 279 280 280 279 279 279 280 282 282 283 283 283 283 283 283 284 284 284 285 285 282 281 280 280 280 280 279 280 280 279 278 277 275 275 275 275 275 275 277 276 276 275 275 274 274 273 272 272 272 272 272 272 272 271 270 271 271 270 270 270 271 271 272 273 274 276 277 279
271 270 267 267 263 274 276 279 278 280 273 275 278 279 280 281 280 280 279 279 279 280 279 280 280 281 281 281 282 282 282 282 282 282 282 282 282 282 281 279 279 277 277 277 277 277 277 277 277 276 275 273 274 274 273 274 276 275 275 274 273 273 272 271 271 271 271 271 270 270 270 270 269 268 269 268 268 269 269 269 270 271 272 274 275 276 278
267 267 265 265 273 277 278 277 274 279 279 282 282 281 279 281 281 280 280 280 281 281 280 279 280 280 280 281 281 281 281 281 282 282 282 280 279 278 278 277 277 275 274 275 275 275 275 275 275 275 274 272 272 271 272 274 274 274 273 272 272 270 270 270 270 270 269 269 269 269 269 268 268 267 267 267 267 268 268 269 269 270 272 274 275 276 276
271 269 272 276 277 279 280 279 279 280 282 283 282 281 280 279 280 282 280 280 281 281 280 279 279 279 280 279 280 279 280 280 280 279 277 277 276 276 275 275 275 274 273 272 272 272 273 273 273 272 272 271 270 269 271 272 271 271 270 270 269 268 268 268 268 268 268 268 268 267 267 267 266 266 266 266 266 267 267 268 269 269 271 273 273 275 276
279 279 279 281 280 280 280 282 283 282 282 283 283 282 280 282 282 282 280 280 280 280 279 278 278 278 279 278 279 279 278 277 277 276 275 275 275 274 274 273 272 271 271 270 270 269 270 270 270 270 270 270 268 269 270 270 270 269 268 267 267 266 267 267 267 267 266 266 266 266 266 266 266 266 265 265 265 266 267 267 268 269 270 271 273 274 275
273 268 278 278 278 280 280 281 282 283 283 282 282 281 281 281 282 280 280 279 278 278 277 277 277 277 278 276 276 275 275 275 274 274 273 273 273 272 271 271 270 269 268 267 267 267 266 268 268 268 268 268 268 268 267 267 267 266 265 264 264 264 264 265 265 265 264 264 265 265 265 265 265 265 265 265 265 265 266 266 267 268 269 270 272 273 274
272 272 276 278 280 280 281 281 280 280 281 282 282 282 281 280 278 277 276 276 276 276 276 275 274 274 274 273 273 273 273 272 272 272 271 271 270 270 269 268 268 267 266 265 265 265 265 266 266 265 265 265 265 264 264 264 263 263 262 262 262 262 262 263 263 263 263 263 263 263 263 263 263 264 264 265 265 265 265 265 266 266 268 269 270 271 273
275 277 278 279 279 279 280 281 282 282 282 282 282 280 278 276 275 274 274 274 274 274 273 272 272 271 271 271 271 270 270 270 270 269 269 268 268 267 266 266 266 265 264 264 263 263 262 263 263 262 262 262 261 261 261 261 261 260 260 260 260 260 260 261 261 262 262 262 262 262 262 262 263 263 263 263 264 264 265 266 266 266 266 267 269 270 271
271 272 275 278 273 273 278 280 281 281 279 278 278 276 275 274 273 272 271 272 272 272 271 270 270 268 269 269 269 268 268 268 268 267 267 266 265 265 265 265 264 263 262 261 260 260 260 261 260 260 259 259 260 260 260 259 259 258 258 258 258 258 259 259 260 260 261 261 261 261 261 261 261 261 264 267 266 264 264 267 270 272 272 268 269 270 270
271 277 279 280 279 278 279 280 278 275 274 275 276 275 273 271 270 270 270 270 270 269 269 269 268 267 267 267 267 266 266 266 266 266 265 264 263 263 263 262 261 260 259 259 259 258 259 259 259 258 258 258 258 259 259 259 259 258 258 257 258 258 258 258 259 259 259 259 259 260 260 260 260 260 260 262 267 269 270 270 271 272 273 274 275 275 273
279 280 280 281 279 277 279 279 274 272 271 273 273 271 270 269 268 268 268 268 267 267 267 267 267 266 265 265 265 263 264 264 264 263 263 263 262 261 261 260 259 258 258 258 257 257 258 258 258 257 257 258 258 258 259 258 258 258 257 257 257 257 258 258 258 259 259 259 259 259 259 260 259 259 259 259 261 266 269 270 271 272 273 274 275 276 277
277 281 281 281 280 280 276 272 271 270 269 271 271 270 268 267 267 267 266 266 267 265 265 265 265 265 264 263 263 262 262 262 262 261 260 260 260 259 259 258 257 257 257 257 257 257 257 257 257 257 256 257 258 258 258 258 258 257 257 257 256 257 257 257 258 258 258 258 258 259 258 259 259 259 259 259 259 260 263 268 270 271 272 273 273 275 276
281 281 282 277 274 275 273 271 269 268 268 267 267 266 266 265 265 264 264 265 265 265 264 264 263 263 263 261 261 261 260 260 260 259 259 258 258 257 257 257 257 257 257 257 257 256 256 256 256 256 256 257 257 258 258 258 258 257 257 257 257 257 257 257 257 257 258 258 258 259 259 259 259 259 260 260 259 260 260 260 262 265 268 270 271 273 274
282 276 274 274 276 275 272 273 273 267 266 266 266 265 264 263 262 263 263 263 263 263 262 262 261 261 260 260 259 259 258 258 258 258 258 257 256 256 257 257 257 257 256 256 256 256 256 256 256 256 256 257 257 258 257 257 257 257 256 256 257 257 258 258 258 258 258 259 259 259 259 259 259 259 259 260 260 259 259 259 259 260 261 263 267 270 269
271 269 273 274 275 275 269 266 266 266 265 264 264 263 262 261 260 260 260 261 261 261 261 260 259 258 257 258 258 257 257 256 256 256 256 256 256 256 257 256 256 256 256 255 255 256 256 256 256 256 256 257 257 257 257 257 256 256 256 256 257 257 257 258 258 258 258 258 259 259 259 259 259 259 259 259 259 259 260 260 260 260 261 262 264 268 270
268 266 266 266 266 265 266 265 265 264 263 263 262 261 260 258 259 259 260 260 260 259 259 259 258 257 257 257 257 255 255 255 255 255 255 256 256 256 256 256 256 256 255 255 255 256 256 256 255 255 255 256 257 257 257 256 256 256 256 256 256 256 257 257 258 258 258 258 258 258 259 259 259 259 259 260 260 260 260 260 260 261 262 263 264 265 268
264 263 263 264 263 263 264 264 264 263 262 262 260 259 259 258 258 259 259 259 259 257 258 257 257 256 256 255 255 255 254 254 254 255 255 255 255 255 255 255 255 255 256 256 256 256 256 255 255 255 255 257 257 257 257 256 256 256 256 256 256 256 257 257 257 257 257 257 258 259 258 259 259 259 259 259 260 260 260 260 261 262 262 263 265 264 265
261 260 260 262 261 262 262 263 262 261 261 259 259 258 258 258 257 257 257 257 257 256 256 255 255 254 254 254 254 254 254 254 254 254 254 254 254 254 255 255 255 255 255 255 255 256 255 255 255 255 257 257 257 257 256 256 256 256 256 257 257 257 258 258 259 258 258 258 258 258 258 258 259 259 259 259 259 260 260 260 261 262 262 263 264 264 266
260 258 258 260 261 260 260 260 260 260 259 258 257 256 257 256 254 254 254 253 254 254 254 253 253 253 253 254 254 254 254 253 253 253 253 253 254 255 256 256 256 256 256 256 255 255 255 256 256 257 257 257 257 257 256 256 256 256 256 257 257 257 258 258 258 258 258 258 258 258 258 258 258 259 259 259 259 259 260 260 260 261 261 261 262 263 265
259 260 261 259 258 258 258 260 259 259 257 256 257 257 256 255 254 254 254 254 253 253 253 253 253 253 253 253 253 252 252 252 252 252 253 254 255 256 257 257 257 256 255 256 256 256 256 256 257 257 257 257 257 257 257 256 256 256 257 257 257 257 257 258 258 258 258 258 258 258 258 258 258 258 258 258 259 259 259 259 260 260 261 261 262 263 265
264 264 262 259 259 261 261 259 258 256 256 256 256 255 254 254 254 253 253 253 252 252 252 253 253 253 253 252 252 251 251 251 252 253 254 254 255 256 257 257 256 255 255 256 256 258 258 257 257 257 257 257 257 257 257 256 256 257 257 257 257 257 257 258 258 258 258 257 258 258 258 258 258 258 258 259 259 259 259 260 260 261 261 262 263 265 267
256 256 256 256 255 255 255 255 254 254 253 253 253 253 253 253 252 252 252 252 251 252 253 253 253 253 252 251 251 251 251 251 252 253 253 254 256 256 256 255 255 255 255 256 258 258 257 257 257 257 257 257 256 256 256 256 256 256 257 257 257 258 258 258 258 258 258 258 258 258 258 258 258 259 259 259 259 259 260 260 261 261 261 262 263 265 267
253 253 253 253 252 252 251 251 252 252 251 251 251 251 251 251 251 251 251 251 253 253 253 253 252 251 251 250 251 251 251 252 252 253 254 255 256 256 255 254 253 253 255 256 258 257 256 257 257 257 257 256 256 256 256 256 256 257 257 258 258 259 259 259 259 260 260 260 259 259 259 259 259 259 260 260 260 260 260 260 261 262 263 263 264 265 267
252 252 251 252 252 252 250 250 251 251 251 251 251 251 251 251 251 251 252 252 252 252 252 251 250 250 250 251 251 251 252 253 254 255 256 256 255 254 254 253 253 254 255 254 255 256 256 256 257 257 256 256 256 256 256 257 257 257 258 258 259 259 259 259 259 259 260 261 261 261 261 261 260 260 261 260 261 261 261 261 262 263 264 265 266 267 269
252 252 251 251 251 250 250 250 250 249 249 249 249 250 250 250 250 250 250 250 251 251 251 251 250 250 250 251 251 251 252 253 254 255 255 254 254 253 253 253 254 255 254 254 255 255 256 256 256 256 255 255 255 255 256 257 257 258 258 258 258 258 259 259 259 260 260 260 261 261 261 262 262 262 262 262 262 262 262 263 263 264 265 266 267 267 266
252 252 252 251 250 250 250 250 249 248 248 248 249 249 250 250 250 250 250 250 251 251 250 250 250 250 250 250 250 251 252 254 254 254 254 253 253 253 252 253 254 254 255 255 255 255 256 256 256 255 255 255 255 255 256 257 257 257 257 258 258 258 259 259 259 259 260 260 260 260 261 262 262 262 263 263 264 264 264 264 264 265 265 264 264 263 263
251 251 250 250 249 249 249 250 249 249 249 249 248 248 249 250 250 250 250 249 250 251 250 250 249 249 249 250 250 251 253 254 254 254 253 253 252 252 253 254 254 254 255 255 255 256 256 256 255 254 255 255 255 256 256 256 257 257 257 257 257 258 258 258 259 258 258 259 259 260 260 260 261 261 261 261 261 261 261 262 262 262 262 262 261 261 261
250 250 250 250 250 250 249 249 249 250 249 249 249 249 250 250 250 249 248 248 249 250 249 248 248 249 249 250 251 252 254 254 254 253 253 252 252 253 253 254 256 255 254 255 255 255 255 255 254 254 255 255 255 256 255 256 256 256 256 256 257 257 257 257 258 258 258 258 258 258 259 259 259 260 260 260 260 260 260 260 260 260 260 260 260 260 259
250 250 250 249 249 249 249 249 250 249 249 249 249 249 250 250 249 248 249 249 249 248 248 248 250 250 250 252 253 254 254 254 253 253 253 252 252 252 253 254 256 255 255 255 255 255 255 254 254 255 255 255 255 255 256 255 255 255 255 255 256 256 256 256 257 257 257 258 258 258 258 258 258 258 259 259 259 259 259 259 259 259 259 259 259 259 259
248 248 248 248 249 249 249 249 249 248 248 249 249 249 249 248 248 248 247 247 247 248 248 249 250 252 253 254 254 253 253 253 253 253 252 253 253 252 253 254 255 255 255 255 255 255 254 254 254 254 255 255 255 255 255 254 254 254 254 254 255 255 255 256 256 256 256 256 257 257 257 257 257 257 257 258 258 258 258 258 258 258 258 258 258 257 257
249 249 249 249 248 249 249 248 248 248 247 248 250 249 248 248 248 247 247 248 248 249 249 250 251 253 254 254 254 253 253 253 253 254 253 253 254 253 251 254 254 255 255 255 255 254 254 254 254 254 255 255 254 254 254 254 254 253 253 253 254 254 254 255 255 255 255 256 256 256 256 256 256 256 256 257 257 257 257 257 257 257 257 257 257 257 257
249 249 248 247 248 248 248 248 248 248 249 250 249 248 247 247 247 247 247 247 248 250 251 253 254 255 255 255 254 254 254 254 253 253 252 252 253 255 256 255 254 254 254 255 254 254 254 254 254 254 254 254 254 254 253 253 253 253 253 253 253 253 253 254 254 254 254 255 255 255 256 256 256 256 256 256 256 256 256 256 256 256 257 257 257 257 257
248 248 247 247 247 247 248 248 249 249 248 247 246 246 247 247 247 248 249 249 250 252 254 255 255 255 254 254 254 254 253 253 253 253 253 253 253 253 254 254 254 254 254 254 254 254 254 254 254 254 254 254 253 253 252 252 253 252 252 252 252 252 253 253 253 253 254 254 254 255 255 255 255 255 255 255 256 256 256 256 256 256 256 256 256 256 256
247 246 246 245 246 246 246 246 245 246 244 243 244 246 249 250 251 253 254 254 255 255 255 255 255 255 255 254 254 253 253 252 253 255 253 253 254 254 254 253 253 254 254 254 253 253 253 253 253 253 253 253 253 252 252 252 252 252 252 252 252 252 252 252 252 252 253 253 254 254 254 254 255 255 255 254 255 255 255 255 255 256 256 256 256 256 256
245 245 246 245 245 245 245 244 241 243 243 245 247 249 251 253 254 255 256 256 255 255 255 255 255 255 255 254 254 254 254 252 251 254 254 253 254 253 253 253 253 253 253 253 253 253 253 253 253 253 253 253 252 252 252 252 252 252 252 252 252 252 252 252 252 252 252 252 252 252 253 253 253 254 254 254 254 254 254 254 255 255 256 256 255 255 255
244 244 245 245 244 244 244 245 246 249 250 251 251 253 254 255 255 255 255 255 255 255 255 255 255 255 255 255 255 255 255 254 253 252 254 254 253 252 253 253 253 253 253 253 252 252 252 252 252 252 252 252 252 252 252 252 252 252 252 252 252 252 252 252 252 251 251 251 251 252 252 252 252 252 252 253 253 254 254 253 254 254 254 254 254 254 254
245 245 245 247 247 248 248 250 251 252 253 254 254 255 255 255 254 255 255 255 255 255 255 255 255 256 255 255 255 255 255 254 253 253 253 253 252 253 253 252 252 252 252 252 252 252 252 252 252 252 252 252 252 252 252 252 252 252 252 252 252 252 252 251 251 251 251 251 251 251 251 251 251 251 251 252 252 252 252 253 253 252 252 253 253 253 252
247 248 248 249 249 250 249 249 252 254 254 255 255 255 255 255 254 255 255 255 255 254 254 255 255 256 255 255 255 255 254 253 253 253 253 253 253 253 253 253 252 252 252 252 252 252 252 252 252 252 252 252 252 252 252 251 251 252 251 251 251 251 251 251 251 251 250 250 250 250 250 250 250 250 250 250 251 251 251 251 252 252 252 252 252 252 251
246 246 248 249 249 250 252 253 254 255 255 255 255 255 255 255 255 254 255 255 255 254 254 254 254 255 255 254 254 254 254 253 253 253 253 253 253 253 253 252 252 252 252 251 252 251 252 252 251 251 251 251 251 251 251 251 251 251 251 251 251 251 251 251 251 250 250 250 250 250 250 250 250 250 250 250 250 250 250 250 251 251 251 251 251 251 252
Wind_Speed
13 14 14 10 7 6 9 12 11 14 14 13 15 16 15 12 14 14 11 15 16 14 15 14 16 2 1 3 3 3 3 2 2 2 2 1 2 2 2 2 2 3 3 3 4 5 6 7 8 9 9 9 9 8 6 6 6 6 7 7 8 9 9 9 9 9 8 8 8 9 9 10 10 10 10 9 10 9 9 9 8 9 9 9 10 10 9
9 10 10 8 8 6 8 10 12 13 15 18 18 19 17 19 19 18 21 22 25 20 22 16 3 5 5 5 3 2 2 3 4 4 4 4 4 4 4 4 4 4 5 4 5 5 5 6 7 7 6 6 6 7 8 8 9 8 7 7 6 6 6 6 7 8 9 8 9 9 9 9 10 10 10 10 9 8 9 9 9 9 9 9 9 10 10
8 7 11 11 11 9 11 11 12 15 17 19 17 17 18 18 18 20 22 23 22 12 2 7 4 6 4 3 1 2 4 4 5 6 6 6 7 6 6 6 6 6 6 6 5 6 6 6 6 6 6 6 7 7 6 6 6 7 7 8 9 8 9 7 7 7 6 6 8 9 9 10 8 8 10 8 8 8 7 6 8 10 9 10 9 8 9
8 6 11 12 10 8 12 12 14 19 19 18 14 16 12 14 15 18 19 15 14 1 3 7 6 3 3 0 1 3 3 5 6 8 9 9 8 7 7 7 6 7 7 7 7 7 7 7 6 6 5 6 6 7 8 8 9 8 8 8 8 8 9 10 10 10 9 8 8 7 7 7 8 8 8 8 8 8 8 8 7 6 9 9 9 9 8
10 12 9 9 6 8 12 14 18 20 20 19 20 18 17 19 19 14 13 13 2 2 3 4 3 3 2 3 4 3 5 6 8 8 10 10 9 9 8 8 8 8 8 8 8 8 8 7 6 6 5 5 6 6 6 7 7 7 8 8 9 9 9 9 9 9 10 10 10 10 9 9 8 7 6 7 7 8 9 9 8 8 9 9 9 9 9
5 10 9 2 3 12 15 4 6 10 15 11 15 14 15 13 12 5 2 1 2 3 4 3 1 1 4 4 5 3 5 6 6 9 10 11 11 10 10 9 9 9 8 7 7 8 9 9 8 6 6 6 6 5 5 6 6 7 7 8 8 9 9 8 9 8 9 8 8 9 10 11 10 9 8 8 8 8 8 8 8 9 9 9 8 8 8
11 6 1 8 16 15 4 3 2 2 2 2 9 14 13 15 1 3 3 4 4 6 3 2 0 3 4 5 6 8 6 6 7 9 10 10 11 11 10 10 10 9 9 9 9 9 9 9 8 7 7 6 6 5 5 6 6 6 7 8 8 9 10 9 8 7 8 8 8 9 9 10 11 11 10 10 9 9 9 9 9 9 9 9 9 8 8
3 3 7 10 8 2 5 9 6 3 1 8 9 13 15 9 4 7 5 6 5 5 2 2 4 5 5 3 7 9 10 8 9 10 11 12 11 11 10 9 9 8 8 8 9 9 8 7 7 7 8 7 6 7 6 6 6 5 6 6 8 8 8 9 8 8 8 8 9 9 10 10 11 12 11 10 10 10 10 10 9 9 8 8 9 10 9
9 7 12 16 9 14 13 14 8 4 5 3 4 7 4 5 4 6 4 5 4 3 4 5 4 2 2 5 8 10 10 10 9 11 13 13 12 11 10 9 10 9 9 9 10 8 8 7 7 7 7 6 6 7 7 5 5 6 6 7 7 8 7 9 8 8 8 8 9 9 9 10 11 12 11 11 11 9 10 10 11 10 10 9 9 9 11
8 6 8 8 6 10 3 2 2 1 3 1 2 3 7 4 1 1 2 1 3 3 7 6 1 3 3 7 9 9 6 5 8 8 11 12 12 11 11 10 9 9 9 9 9 8 10 10 9 6 5 5 6 6 6 7 6 7 7 8 9 7 8 7 9 8 7 7 8 9 9 10 11 11 10 10 10 9 10 11 12 12 11 11 11 9 9
8 10 9 9 10 5 4 4 2 3 2 2 2 2 8 2 5 2 2 1 3 4 5 7 1 1 7 9 9 10 11 6 4 8 9 10 11 12 12 12 13 12 10 9 8 9 10 11 10 4 4 5 6 7 7 7 7 8 9 10 10 9 10 10 9 7 6 6 8 9 10 11 10 11 10 10 10 10 10 10 12 12 12 11 11 10 10
10 10 10 11 5 5 1 3 4 3 2 2 2 12 6 1 5 3 3 4 5 5 7 6 4 5 9 10 11 12 13 10 6 8 12 14 13 12 13 12 11 9 7 7 8 9 10 11 8 6 5 5 7 8 8 8 8 10 9 10 10 11 11 11 9 7 6 7 8 9 11 11 10 10 10 10 10 10 11 10 11 12 12 11 12 12 11
11 14 11 9 9 9 10 10 12 4 2 1 6 14 2 5 7 7 4 6 6 7 8 5 5 8 11 13 15 15 10 8 10 9 9 12 14 15 14 8 9 8 8 8 10 11 10 9 8 7 6 7 9 9 9 9 11 11 10 10 10 11 11 10 9 8 8 8 10 11 11 11 10 10 10 11 11 11 12 12 11 12 13 13 14 14 12
11 10 12 11 11 6 5 4 2 6 2 5 11 1 5 4 5 4 8 8 9 9 10 9 9 11 13 14 11 10 11 11 12 13 12 12 12 12 7 5 6 7 8 9 11 11 11 10 8 6 6 9 10 10 10 12 13 11 11 11 10 9 10 9 8 9 9 9 10 11 10 9 10 12 11 10 11 12 11 12 15 16 15 13 13 13 12
4 5 7 8 9 1 2 2 4 4 5 5 1 3 5 6 4 6 7 8 9 9 9 10 12 12 12 12 11 11 11 12 13 13 13 12 11 10 9 8 7 7 9 11 12 13 11 9 6 6 7 11 11 10 12 14 12 9 11 10 9 9 9 10 12 13 11 10 10 9 9 10 10 13 13 12 12 12 12 14 14 16 16 15 13 13 12
8 8 9 6 3 1 2 3 2 1 4 5 8 9 13 10 8 6 5 6 7 7 8 9 11 11 11 11 11 11 12 12 12 10 8 8 8 8 7 7 7 7 10 11 13 14 13 10 9 7 6 11 12 14 16 14 12 11 9 8 9 11 12 14 15 13 12 13 11 10 10 10 11 13 14 13 12 12 12 12 13 14 13 13 12 12 12
5 6 8 1 0 3 5 5 9 11 13 11 9 8 8 9 8 6 5 8 8 7 7 8 9 10 10 11 11 12 11 11 9 8 8 8 8 9 10 10 8 7 10 12 14 15 15 13 10 9 8 11 13 15 14 12 13 12 12 13 12 14 16 16 15 15 13 11 11 8 10 11 13 13 14 13 13 12 12 13 13 13 14 13 13 12 12
7 9 11 5 8 11 13 10 7 9 10 10 8 6 7 7 8 6 7 8 8 8 4 4 7 8 8 9 9 9 9 9 9 8 8 9 8 8 9 8 9 9 11 12 13 15 17 15 11 10 10 10 14 15 14 13 13 12 14 15 15 17 16 14 16 16 17 16 13 12 13 12 14 14 15 15 14 13 12 13 13 13 14 13 13 13 13
9 10 11 9 14 14 12 13 12 10 7 9 9 8 8 8 6 4 1 3 4 4 4 4 7 8 6 6 7 8 8 8 8 8 9 10 9 9 10 11 11 11 11 12 14 15 18 17 13 13 13 12 12 14 15 15 15 15 15 15 17 17 16 17 17 15 16 16 17 15 15 13 15 15 14 14 16 14 13 13 13 13 14 14 14 14 14
11 14 17 15 13 14 14 11 11 13 13 10 9 7 3 2 3 2 2 1 0 1 2 2 3 6 4 5 7 8 8 7 7 8 8 10 11 10 9 10 10 11 11 12 15 16 16 16 14 14 14 13 13 14 14 15 17 18 19 18 18 19 19 18 17 17 16 20 20 17 17 14 15 15 14 13 14 15 14 13 13 14 13 14 14 14 14
12 16 18 18 18 19 17 16 13 11 12 12 9 1 2 2 2 3 2 3 1 1 1 2 4 5 5 5 7 8 8 8 8 8 9 10 10 11 12 11 10 10 12 14 15 16 17 15 15 15 15 15 14 16 16 15 16 18 18 20 19 20 19 17 17 16 15 16 16 15 16 15 15 16 15 14 15 16 17 14 15 15 15 16 17 16 15
13 13 14 10 8 10 13 12 10 10 1 1 2 2 2 1 1 1 1 1 2 1 1 2 3 4 5 5 7 8 7 8 9 10 10 10 11 11 10 10 11 12 12 12 16 17 17 15 14 15 15 15 14 14 14 14 15 17 18 18 19 18 16 16 16 15 14 14 14 14 15 15 15 16 19 24 21 17 17 22 29 31 27 20 19 16 16
13 15 14 12 12 15 15 13 3 3 1 2 3 2 2 2 2 1 2 3 0 1 0 2 3 4 5 7 7 8 7 8 8 9 11 11 11 12 12 12 13 13 14 14 15 17 16 15 15 15 16 17 15 15 14 14 15 16 16 17 18 17 16 15 16 16 16 16 15 14 15 15 15 16 16 16 23 30 31 31 31 32 33 36 37 36 26
18 17 15 12 8 11 13 4 5 3 1 1 2 4 3 3 2 1 1 1 3 3 2 2 2 4 5 6 7 8 8 8 9 10 9 10 11 12 11 10 13 15 15 15 15 16 16 15 15 15 15 15 14 14 14 14 14 15 17 16 17 17 17 17 18 17 16 17 17 16 16 15 15 15 16 17 17 19 24 27 30 31 33 34 35 35 36
17 16 13 11 10 7 2 5 4 4 3 1 3 3 3 2 2 1 1 2 2 3 4 3 3 3 5 6 7 8 10 10 9 10 12 10 10 10 11 12 12 13 14 13 14 15 15 16 16 15 14 16 16 14 14 14 14 15 16 17 19 19 18 18 18 18 17 16 16 15 16 15 15 15 15 16 17 17 15 20 24 25 28 32 33 32 31
16 16 13 1 2 2 3 4 2 3 3 4 3 3 4 3 1 2 2 3 3 2 3 3 4 4 4 6 7 9 10 10 10 11 10 9 9 10 10 12 13 12 13 14 15 15 15 16 16 16 16 17 15 14 15 14 14 16 17 18 19 17 17 18 18 17 16 16 16 16 15 16 15 16 16 16 17 17 18 17 16 20 26 29 30 32 34
13 3 2 8 10 7 7 7 3 6 4 4 3 4 3 1 0 2 2 3 2 2 2 4 5 5 5 6 7 7 9 11 10 9 9 11 12 11 11 11 13 14 15 15 15 15 17 17 16 15 16 17 15 14 13 14 14 16 17 18 16 18 25 22 16 16 16 16 16 16 16 15 16 16 16 16 16 17 17 17 17 16 14 14 18 24 23
2 2 2 10 11 4 4 3 5 5 4 3 3 3 2 1 1 1 2 2 2 1 2 3 3 5 6 6 7 8 8 9 10 10 11 11 11 11 11 12 13 14 14 14 14 14 14 14 15 16 16 16 14 13 13 14 15 16 16 17 16 15 15 17 16 15 15 15 15 15 16 15 15 16 16 16 17 16 17 17 17 17 15 14 13 16 25
2 3 2 3 4 4 5 4 4 4 4 4 3 2 1 2 2 1 1 1 2 2 4 2 3 4 6 7 7 8 9 10 11 13 12 12 11 11 11 12 13 13 13 14 13 13 14 15 15 17 16 15 14 14 14 15 15 15 15 15 15 14 14 14 14 14 15 15 15 16 16 17 16 16 15 16 16 16 16 16 17 16 16 15 14 15 17
3 3 2 2 4 4 5 4 4 4 3 2 1 0 1 1 2 2 3 3 2 4 4 4 5 6 6 7 7 8 10 12 13 13 12 12 12 11 11 11 12 13 12 11 12 14 14 15 16 17 17 13 12 14 13 14 15 16 16 16 15 15 14 14 14 15 15 15 16 20 16 15 15 14 15 15 15 15 16 16 17 16 15 14 14 14 14
3 2 2 3 3 2 3 4 4 3 3 2 0 2 2 1 2 3 3 3 4 5 5 6 7 8 8 8 8 9 10 11 12 12 12 11 11 11 11 10 11 13 14 15 17 16 16 17 15 15 14 12 11 13 13 14 15 15 14 14 13 19 23 25 21 16 15 15 15 15 14 14 13 14 14 14 14 14 14 14 14 14 14 13 13 13 13
7 4 3 2 3 2 2 2 3 3 2 0 1 2 2 3 4 5 5 4 4 5 7 8 8 8 8 8 9 9 10 10 11 11 12 11 10 9 9 10 10 13 16 17 16 14 14 14 15 14 14 14 15 15 14 15 14 14 14 14 14 14 15 21 16 16 15 14 14 15 14 13 13 13 14 14 14 14 14 14 14 14 14 15 15 14 14
3 1 4 4 4 4 4 4 4 3 1 2 3 2 3 3 4 5 5 6 7 7 7 8 8 8 8 9 9 9 9 10 10 11 9 9 9 10 9 10 12 12 15 15 15 15 14 14 15 15 15 15 15 15 14 14 14 13 13 13 13 14 15 16 17 15 15 15 14 14 14 14 14 13 13 14 14 14 13 14 14 14 14 13 13 13 14
4 4 0 2 2 3 5 4 2 1 2 3 3 4 3 4 4 5 6 6 7 8 8 9 8 8 7 7 9 8 8 8 9 9 9 10 11 10 10 11 11 13 14 14 13 10 11 13 14 14 15 15 15 14 14 14 13 13 13 13 14 14 14 14 14 13 12 13 13 15 14 14 13 13 13 14 13 12 13 13 14 13 13 13 12 12 16
4 4 4 3 3 2 1 0 2 2 3 5 5 4 5 5 5 5 5 6 7 8 9 9 8 8 8 8 7 8 7 8 9 10 11 11 11 11 11 12 13 13 13 12 9 8 11 13 13 14 16 16 15 14 13 14 14 14 15 14 14 13 14 13 13 12 12 13 12 11 11 12 12 13 13 13 12 13 13 13 13 13 12 13 12 12 13
3 2 2 1 1 1 1 1 2 3 4 5 6 6 6 5 6 6 7 8 8 9 9 9 8 7 7 8 8 7 8 8 9 10 10 11 11 11 12 13 13 14 12 12 7 9 14 11 16 23 19 16 15 14 13 15 15 14 14 14 13 13 13 13 13 13 13 12 12 12 11 14 15 13 12 11 11 11 12 12 12 12 12 12 12 12 11
3 2 1 2 2 1 3 4 4 5 5 5 6 6 6 7 7 7 6 8 8 8 9 7 6 7 8 8 8 8 9 9 9 10 10 11 11 12 11 12 12 11 12 10 11 14 13 12 20 27 18 13 13 14 16 22 15 14 13 12 12 11 12 12 12 11 12 11 12 12 13 12 10 11 11 10 10 10 10 11 11 11 12 11 11 11 10
1 1 2 2 3 3 5 5 4 4 6 6 7 6 7 8 7 6 7 6 7 7 6 7 7 8 8 8 8 9 9 9 9 9 10 10 10 11 11 10 9 9 9 9 14 14 12 16 22 18 14 13 13 14 17 23 23 16 12 12 11 11 11 11 11 11 11 11 12 11 11 11 10 9 9 9 9 9 9 10 10 10 11 11 7 4 3
1 1 2 2 2 4 5 5 4 4 5 8 8 8 7 6 6 6 7 7 8 6 5 7 6 7 8 8 8 8 9 8 8 10 10 11 9 8 10 11 10 6 8 11 12 11 12 14 15 14 12 12 14 14 16 21 24 14 12 11 12 11 11 10 10 10 10 11 10 11 11 10 9 9 8 7 7 7 7 7 7 5 5 4 4 3 4
1 2 3 4 5 5 5 6 5 6 6 6 7 9 8 6 6 6 7 7 9 6 6 5 5 6 7 8 8 8 8 8 8 9 11 10 10 11 10 8 4 5 8 12 10 10 14 19 15 12 12 12 13 13 14 19 19 12 11 11 11 10 10 10 10 9 10 10 10 11 10 10 10 10 9 8 7 7 7 7 7 7 6 6 6 6 6
3 3 3 4 5 4 5 5 7 6 6 7 7 7 6 6 6 6 8 9 9 6 6 5 6 7 8 9 9 10 9 8 8 9 9 8 8 8 7 8 7 8 8 9 9 10 12 12 10 12 11 12 12 15 14 18 14 10 10 10 10 10 10 10 10 10 10 10 10 10 10 10 10 10 9 9 8 8 8 8 7 7 7 7 7 7 7
3 3 4 4 5 5 5 6 6 6 7 7 7 6 7 6 6 8 9 8 8 8 8 8 8 10 9 10 9 8 9 9 8 8 7 7 8 7 8 7 8 7 12 13 10 9 7 8 9 10 11 13 12 20 23 14 11 10 9 10 9 10 9 10 10 10 10 9 9 8 9 9 9 9 9 9 9 9 8 8 8 8 8 8 7 7 7
3 3 4 5 6 5 5 5 5 7 7 9 7 7 8 6 6 7 7 8 8 8 8 8 8 9 9 8 7 7 8 7 7 7 7 8 12 11 8 8 9 7 14 10 9 7 7 7 8 8 16 16 14 22 19 11 10 10 10 9 10 9 9 9 9 9 9 9 9 9 9 9 9 8 9 9 9 9 9 8 8 8 8 8 8 8 8
3 3 4 5 5 5 5 5 6 7 7 8 7 6 6 7 7 8 9 8 8 8 7 8 8 7 7 5 5 6 7 6 6 5 6 8 8 6 9 5 7 9 12 10 8 7 7 7 7 15 20 21 21 20 12 9 11 10 10 10 9 9 9 9 9 9 9 9 9 9 9 9 9 8 8 8 8 8 8 8 8 8 8 8 7 7 7
4 4 4 5 5 5 4 4 6 7 7 6 7 8 8 9 10 8 8 8 8 7 7 7 7 6 5 4 4 5 6 6 6 5 5 6 6 2 1 7 7 6 9 13 8 7 6 7 13 19 17 20 20 18 9 8 8 8 9 10 9 9 9 9 9 9 9 9 9 9 9 8 8 8 8 8 8 8 8 8 8 8 8 8 8 8 8
4 4 3 4 5 6 6 6 5 5 6 6 8 10 10 8 8 8 6 8 8 7 7 7 6 6 4 4 5 6 6 6 6 6 7 6 5 6 7 8 7 7 12 12 6 6 6 14 17 18 19 18 18 10 7 7 8 8 8 8 9 10 9 8 9 9 9 9 9 9 9 8 8 8 8 8 8 8 8 8 7 8 8 8 8 8 8
4 5 5 4 6 6 6 5 3 5 5 4 6 8 8 6 5 5 6 7 7 7 5 5 5 5 3 4 4 5 5 6 6 3 3 2 4 6 7 9 8 10 10 7 6 6 7 11 13 17 17 18 15 7 7 7 7 7 7 7 8 7 9 9 9 9 8 8 9 9 9 9 8 8 8 8 8 8 8 8 8 8 8 8 8 9 9
3 5 7 6 8 9 6 5 3 4 5 8 7 6 6 6 6 6 5 4 4 4 4 3 2 2 3 3 3 3 3 2 5 4 2 2 5 4 4 4 6 11 11 7 7 7 11 14 16 16 17 16 8 6 7 7 7 7 8 8 8 8 8 8 8 9 9 9 9 8 8 9 9 8 8 8 8 8 8 8 8 8 7 7 7 7 7
3 6 8 7 6 7 6 5 4 5 3 5 4 5 5 5 6 5 3 3 4 3 2 2 3 3 3 3 3 3 2 3 5 5 4 6 6 6 4 5 8 8 7 5 5 5 9 14 14 15 15 11 7 7 7 7 7 8 7 7 7 7 7 7 8 8 7 8 8 8 8 8 8 8 8 9 9 8 8 8 8 7 7 6 7 6 7
5 3 3 3 3 3 3 2 2 4 5 4 4 4 4 4 3 2 2 2 2 3 2 2 2 2 3 3 2 2 3 4 5 6 7 6 6 5 5 4 4 7 7 6 5 5 7 11 10 11 9 7 8 8 7 8 8 8 8 8 8 6 7 8 7 8 7 7 7 7 7 7 7 8 8 8 8 7 7 7 6 8 11 8 6 6 6
2 2 3 4 3 4 6 6 4 4 4 4 4 4 4 3 3 3 2 2 2 2 2 3 3 3 2 2 2 2 3 4 4 5 4 4 3 4 5 5 5 5 6 6 5 6 6 6 6 8 8 7 6 7 7 7 7 7 7 7 7 7 8 8 7 8 7 7 6 6 6 6 6 6 6 6 6 6 6 6 7 6 7 6 6 6 6
4 4 4 3 3 4 4 3 3 3 3 3 3 3 3 3 3 2 2 2 2 2 3 3 3 2 1 2 2 3 3 3 3 3 3 3 4 3 4 5 4 5 4 5 5 6 5 6 6 6 6 6 5 6 7 8 6 6 7 6 6 7 6 6 7 7 7 8 6 6 6 6 6 6 6 6 5 5 5 5 5 5 5 5 5 5 4
Wind_Direction
273 279 285 292 283 256 272 274 274 271 268 266 257 256 265 278 265 273 294 293 281 274 277 279 279 0 2 122 133 128 127 174 204 242 272 307 317 302 298 302 299 288 302 300 316 326 330 331 337 340 342 344 346 343 345 346 344 343 341 337 340 344 345 347 349 345 343 341 341 341 340 339 342 342 340 338 337 334 332 331 322 317 309 299 289 281 267
290 288 287 291 287 293 281 269 269 270 266 262 263 271 274 264 262 269 275 273 272 276 273 278 358 78 98 100 115 134 201 231 236 240 260 262 288 294 289 293 294 286 285 298 299 307 310 315 321 325 327 327 329 327 328 335 336 339 340 333 332 331 331 333 334 335 335 337 337 338 337 338 337 336 334 333 331 330 329 329 327 318 316 307 297 291 287
280 286 290 287 285 291 281 269 271 270 267 268 271 276 266 269 266 263 262 262 266 266 19 85 90 87 95 108 208 224 251 244 246 255 257 261 255 260 260 260 268 270 273 272 277 278 289 296 299 309 311 316 322 319 321 324 327 331 331 326 331 330 330 326 323 321 323 324 329 331 333 331 329 330 330 329 326 323 323 323 322 322 317 313 305 298 292
273 264 280 287 292 278 271 269 261 257 256 263 255 253 253 257 262 263 267 264 263 7 52 89 97 91 108 230 260 250 255 256 254 258 261 260 262 269 272 272 274 280 284 288 283 282 279 281 279 275 286 295 304 310 319 328 330 330 328 323 325 322 323 325 327 329 327 326 325 323 325 323 321 320 320 318 320 319 320 320 318 315 310 303 306 298 289
260 277 275 290 305 301 275 241 240 246 252 247 253 254 254 251 261 264 257 264 351 102 108 120 118 118 321 250 274 267 263 247 241 248 256 261 267 275 288 292 289 285 283 280 282 282 281 275 275 270 267 269 274 280 291 299 310 311 314 316 316 316 315 317 319 323 327 328 328 329 329 326 317 305 300 307 311 317 318 316 312 313 311 308 301 298 290
275 279 295 338 290 258 248 301 279 251 261 267 267 263 259 259 250 273 321 338 121 124 127 114 146 91 270 309 295 265 270 279 264 253 254 257 260 267 272 272 275 276 277 274 271 270 273 279 278 278 259 261 269 266 273 283 291 297 301 305 306 306 308 308 312 316 316 320 320 323 325 321 316 311 310 306 308 305 303 307 310 308 308 304 300 295 289
267 276 26 284 252 253 310 33 328 5 12 288 255 268 268 266 238 98 213 160 168 165 121 137 166 273 275 265 287 291 274 254 264 269 267 260 251 249 256 260 260 257 260 266 268 269 270 273 279 277 275 270 270 266 262 277 285 293 298 299 302 302 304 305 308 312 315 316 318 320 320 319 313 307 305 309 309 311 309 304 302 302 303 304 298 295 284
295 209 230 247 249 68 278 283 259 140 247 246 269 272 261 266 248 238 204 187 158 163 194 225 236 243 257 297 272 267 271 267 264 266 265 261 256 252 252 260 262 266 265 269 273 273 271 266 261 260 265 271 266 272 275 275 282 282 281 283 284 289 292 296 299 305 311 312 316 319 319 317 312 306 306 306 312 312 307 300 296 292 290 285 285 290 288
248 244 236 240 318 318 297 285 276 166 254 236 217 271 311 121 222 177 203 161 163 191 236 245 252 255 300 283 272 250 238 252 252 257 261 264 260 253 254 257 263 266 271 271 272 271 267 258 253 254 259 256 261 269 273 270 271 273 272 271 276 277 278 286 291 295 302 306 307 310 311 310 305 302 305 309 310 310 301 296 294 292 288 286 287 285 285
231 241 258 275 267 265 290 60 284 257 246 2 283 63 295 143 137 37 171 161 196 276 303 271 252 114 288 286 286 298 275 208 257 262 267 269 266 261 259 258 258 259 261 265 267 269 274 274 269 258 255 253 259 267 269 274 273 274 273 274 282 282 281 285 284 289 294 296 298 299 303 300 297 295 298 301 297 299 299 296 292 286 285 284 278 273 273
257 251 247 244 255 255 107 252 161 241 148 227 218 290 290 67 183 232 157 176 214 239 259 271 187 236 270 276 293 302 308 284 232 266 274 267 261 260 254 253 259 260 257 260 275 280 279 276 281 279 275 271 268 271 276 279 275 275 276 281 282 284 284 282 281 282 287 287 291 293 294 293 292 293 297 298 296 300 295 292 289 290 285 280 277 271 266
232 246 248 254 253 256 302 231 271 213 136 186 274 294 293 117 248 235 196 237 256 257 242 253 242 248 280 288 300 308 300 307 324 309 300 295 282 263 257 255 255 275 300 301 282 276 275 285 309 333 320 300 289 283 283 284 278 275 278 279 282 285 284 284 282 277 282 284 286 290 288 289 289 288 293 295 294 295 293 290 287 285 282 277 278 275 270
239 240 252 261 261 259 262 269 266 121 184 208 269 257 328 181 212 219 204 237 251 265 273 246 252 237 260 280 288 292 299 308 296 287 278 276 278 281 281 299 11 330 314 303 298 299 305 318 329 323 324 307 295 292 290 287 275 280 287 288 289 284 283 282 281 281 285 283 280 279 278 282 287 290 289 289 292 292 293 289 283 282 281 279 275 271 262
233 235 253 250 270 259 226 234 173 129 164 232 249 326 138 235 233 211 203 231 246 254 257 267 264 277 281 283 284 287 287 283 287 287 283 283 283 281 292 6 350 329 316 311 306 304 304 310 317 314 310 297 290 291 291 280 279 295 294 296 293 288 283 278 274 277 275 275 273 276 280 283 284 284 282 282 283 287 287 284 287 285 280 275 271 269 269
239 242 253 263 260 6 69 172 50 212 215 275 86 282 255 189 229 251 230 222 246 249 263 256 267 276 279 278 276 276 278 283 287 291 296 309 320 326 336 345 4 348 322 312 308 305 306 307 307 304 305 295 291 290 281 281 299 302 302 301 293 288 282 278 281 280 276 272 273 276 278 279 279 279 283 284 282 281 278 277 274 277 275 273 269 265 263
254 246 235 219 263 217 189 172 194 210 227 306 304 304 298 301 298 278 275 243 229 236 251 276 284 281 279 275 272 277 283 289 296 309 332 346 340 335 339 341 338 336 312 309 306 306 306 306 308 309 299 295 293 293 286 302 307 305 303 297 290 287 285 284 285 281 278 278 273 271 276 279 277 275 277 278 278 275 276 274 274 272 270 270 268 265 264
214 241 264 200 163 212 198 204 254 261 271 271 259 257 264 277 279 276 276 286 291 289 282 279 277 278 270 277 288 292 294 301 312 331 335 333 328 326 328 328 328 326 318 312 309 305 305 307 313 314 308 300 296 291 298 310 308 309 307 301 295 287 287 286 284 283 284 278 276 272 274 276 276 276 275 273 275 272 268 266 263 263 264 264 264 264 264
251 268 261 268 268 264 275 262 238 261 272 272 273 268 275 256 266 283 290 299 296 297 308 282 275 269 284 294 294 298 302 307 315 328 325 321 322 323 326 327 336 330 320 312 307 305 305 309 315 315 311 312 305 304 312 313 311 309 307 301 293 289 288 286 284 286 288 285 278 270 268 267 266 265 266 268 265 266 264 261 261 262 263 264 263 262 261
272 263 261 228 248 261 261 265 266 264 242 257 270 271 260 272 295 316 335 296 298 311 319 279 277 286 307 305 299 299 300 307 319 322 317 316 324 330 328 329 336 326 329 319 313 313 307 311 319 316 319 317 315 317 319 319 320 319 313 304 296 291 287 289 289 286 284 284 288 287 280 277 275 272 268 269 271 266 260 260 260 261 262 264 266 264 263
239 256 259 260 257 256 260 265 274 271 267 256 243 247 276 320 68 69 56 27 264 6 295 319 299 294 311 305 301 304 306 315 319 316 317 321 322 325 327 322 331 325 321 317 312 313 309 315 321 319 319 318 320 322 316 315 313 309 302 297 294 291 288 289 287 286 286 285 284 284 281 278 275 273 270 262 260 259 258 258 261 264 265 265 262 262 264
239 251 259 264 268 269 266 259 250 248 257 266 271 318 11 28 92 91 83 64 76 28 334 341 316 309 308 309 306 305 311 317 319 321 320 320 319 321 325 326 334 325 323 320 315 313 306 311 313 313 314 315 318 315 311 308 305 301 296 295 292 289 289 289 283 283 282 281 281 281 280 277 270 267 266 264 260 263 258 254 254 259 265 264 261 261 263
255 250 251 241 257 270 270 253 232 243 256 302 233 142 139 80 36 47 26 122 122 104 39 350 324 304 304 314 317 308 312 314 316 318 320 319 319 320 324 322 323 321 320 317 311 308 306 309 309 307 305 303 302 300 299 299 300 297 296 296 294 290 290 289 288 289 287 284 283 282 280 279 279 276 265 261 259 258 264 257 254 253 253 255 256 259 260
253 249 242 228 234 259 263 278 106 99 101 227 223 196 154 116 99 21 345 328 252 172 23 2 329 310 312 314 320 308 310 312 312 312 317 319 320 322 326 322 319 320 315 313 308 302 302 306 303 301 298 299 296 294 294 293 295 291 290 292 292 291 292 289 289 291 288 285 283 280 278 277 276 277 282 272 261 261 261 263 261 259 257 257 258 257 256
255 259 264 255 238 247 265 279 110 122 73 165 137 113 109 113 105 72 1 322 301 303 313 315 349 330 321 318 320 307 307 308 311 313 316 318 313 312 315 316 313 313 312 311 307 304 301 298 295 293 290 289 290 291 294 293 288 287 286 287 290 291 290 289 289 287 284 283 282 280 279 276 275 277 278 282 281 267 266 269 268 265 262 260 259 258 257
249 252 254 261 265 269 51 74 97 112 92 102 152 140 122 135 102 44 323 297 305 309 302 300 317 338 329 321 318 308 308 310 313 318 318 311 309 313 311 309 307 307 304 301 298 295 293 292 291 289 288 290 294 293 294 293 288 287 287 285 287 288 287 287 287 285 284 283 282 282 281 279 278 276 277 279 283 290 281 273 280 289 294 292 290 286 280
244 253 264 46 92 201 124 76 163 147 126 120 126 132 118 96 69 340 287 302 300 323 308 310 317 329 352 325 312 310 306 305 319 320 311 312 314 312 306 305 304 300 298 296 293 291 288 286 286 288 287 290 295 295 297 294 293 292 291 289 286 287 288 288 287 286 284 283 282 280 279 278 277 277 277 278 282 284 288 289 283 279 275 274 275 278 282
243 283 10 293 268 233 156 216 229 126 129 113 128 126 113 78 64 262 299 277 274 298 325 325 325 333 331 307 300 302 306 310 314 310 311 309 304 300 299 299 299 297 295 291 289 287 289 290 290 291 292 295 298 298 297 297 294 294 293 292 290 287 286 286 285 285 283 281 280 279 279 278 278 278 278 278 279 280 280 283 285 285 284 281 276 273 270
66 47 169 223 254 288 131 90 101 128 127 134 122 119 70 22 346 250 221 201 203 271 307 301 333 337 315 318 321 312 312 311 311 309 307 300 299 298 295 297 298 295 290 285 282 287 291 290 292 295 294 298 300 300 298 297 296 295 295 294 293 292 292 290 287 286 284 284 281 281 280 279 279 277 278 277 277 277 277 276 278 281 281 275 276 277 277
126 85 64 45 55 93 98 108 131 136 136 112 103 88 29 349 301 255 263 258 300 317 299 308 330 312 310 314 321 313 311 308 305 307 306 305 298 297 296 295 292 289 285 283 283 288 295 297 297 298 292 297 300 299 298 296 294 295 294 293 292 290 289 288 287 286 285 284 282 281 280 280 277 276 274 273 273 274 273 275 276 280 281 280 278 276 276
127 110 101 119 98 117 146 168 172 161 150 147 101 153 5 338 311 307 312 306 322 317 315 328 315 311 314 309 311 311 304 303 303 304 303 302 297 296 292 291 290 282 279 283 292 301 300 298 297 295 298 298 294 300 296 295 294 291 287 284 281 282 283 283 285 285 283 281 280 280 279 278 277 277 278 278 278 277 280 281 280 278 280 281 278 279 281
124 93 123 132 126 134 176 177 144 162 159 134 82 318 298 329 300 298 307 327 319 312 317 315 308 305 308 305 302 297 293 293 294 296 294 290 289 286 289 294 301 306 306 305 304 302 296 294 291 291 293 293 298 302 301 297 297 294 292 289 285 284 284 285 285 284 283 283 282 282 279 279 276 276 275 276 275 275 273 271 275 278 281 282 286 290 288
105 94 103 172 176 191 188 185 177 184 174 118 332 292 309 332 316 308 307 302 297 302 305 308 303 303 302 299 296 294 296 295 294 292 290 283 279 276 285 292 287 290 296 296 293 292 292 294 294 297 304 307 308 307 304 303 301 299 295 292 289 290 288 286 287 284 282 278 278 278 276 275 275 275 277 276 276 279 281 284 286 287 287 285 283 282 279
113 309 261 208 229 232 236 207 190 200 160 270 273 289 300 282 276 281 284 296 304 306 301 295 292 294 297 299 297 296 295 294 284 278 266 270 281 295 296 302 302 297 296 292 289 286 284 297 307 310 310 313 313 312 310 306 304 301 299 295 292 289 286 284 281 283 280 277 273 270 270 268 271 271 270 270 272 273 275 276 277 279 278 277 276 273 275
202 225 93 93 146 207 200 179 125 251 274 275 275 277 275 280 282 286 290 296 295 296 287 289 292 292 291 296 298 293 295 294 299 300 298 295 294 292 304 307 299 290 284 280 280 285 310 316 312 312 315 315 315 316 313 312 308 304 299 296 292 288 287 285 283 278 273 273 269 266 262 263 265 264 265 265 267 266 270 271 273 274 276 278 277 278 277
82 75 83 76 53 70 56 233 251 268 280 280 276 262 267 274 271 275 286 295 289 291 294 293 295 300 300 290 287 278 275 275 282 290 291 293 296 303 306 307 300 294 282 282 292 306 319 312 316 321 324 322 317 314 312 310 308 303 299 293 289 285 285 282 281 275 271 272 271 267 264 262 260 258 257 259 260 263 265 266 268 270 272 273 273 276 277
72 52 58 28 71 36 113 201 235 249 259 261 267 269 280 283 300 302 295 286 290 292 293 294 296 293 282 279 282 282 282 282 281 279 285 297 306 308 307 302 300 292 290 294 310 325 321 318 329 332 330 321 316 314 314 314 309 307 299 300 297 300 298 298 296 296 291 282 277 273 270 267 262 260 258 257 255 257 260 263 265 268 270 268 265 266 269
76 80 63 346 325 329 293 272 245 252 256 262 278 286 284 279 274 271 270 279 282 281 286 285 280 276 272 274 278 278 276 276 283 293 300 305 308 306 302 298 290 291 316 312 328 334 329 329 333 333 330 319 319 317 317 319 318 317 313 311 308 306 304 304 307 307 307 307 304 297 289 279 271 268 258 251 254 254 257 258 262 264 266 270 275 279 286
4 84 273 295 287 280 270 266 263 253 266 278 267 258 261 267 267 270 267 267 269 269 271 271 261 268 274 279 280 277 279 280 282 290 298 302 305 305 302 300 300 325 331 325 325 327 330 330 332 332 323 321 322 320 319 323 327 324 318 317 312 310 309 312 314 317 320 320 319 315 313 313 304 289 275 265 257 257 257 260 264 264 268 275 287 325 1
338 1 288 287 292 273 272 270 265 253 243 255 266 267 263 264 264 271 271 267 270 267 264 263 269 273 275 281 282 285 283 285 292 300 303 305 304 304 293 293 283 297 312 314 318 322 326 330 332 324 323 319 320 318 325 329 331 327 322 318 318 316 319 319 323 323 324 325 325 327 328 326 331 338 338 329 317 305 297 313 315 312 327 349 2 8 21
223 243 265 270 268 260 263 266 264 261 257 248 260 272 278 281 277 268 268 273 271 259 259 267 275 275 282 278 282 284 288 295 302 305 304 307 309 305 292 272 251 314 317 320 322 324 328 331 331 326 324 324 326 328 330 331 331 327 326 324 323 324 324 325 326 329 331 332 333 337 338 340 343 343 342 349 354 357 0 355 355 356 359 5 13 18 19
232 238 238 222 251 247 249 265 271 268 269 269 262 263 260 255 264 270 269 267 273 273 269 260 265 266 265 270 275 279 287 297 302 303 302 305 303 298 297 304 334 333 323 327 326 332 332 333 333 331 327 331 329 334 333 331 330 326 328 327 329 331 331 332 335 335 336 337 342 343 346 348 349 347 349 351 357 4 7 9 7 10 9 12 13 17 24
249 242 257 257 258 255 254 258 268 277 273 270 269 270 269 263 254 257 265 269 274 275 273 269 253 256 263 267 269 283 292 298 300 296 294 291 286 287 292 289 326 316 327 328 330 328 329 329 329 332 336 335 333 335 336 330 328 330 333 335 335 336 337 338 340 339 337 339 340 343 348 352 352 354 353 356 358 1 1 6 13 15 16 16 19 21 20
218 238 246 256 263 269 264 266 274 282 290 288 285 279 273 269 261 261 262 263 264 267 269 264 266 267 267 269 275 283 290 298 290 286 289 287 271 247 245 293 313 317 332 339 338 338 334 329 331 337 338 340 336 337 338 338 335 337 337 338 337 340 341 344 342 342 344 346 346 348 350 352 355 358 359 1 3 2 4 8 14 17 17 17 18 22 29
263 256 250 255 261 271 281 289 291 294 287 282 278 273 269 270 264 259 263 263 265 260 256 262 264 259 257 257 270 291 296 301 301 310 306 297 283 254 211 278 309 319 338 346 340 336 330 330 331 336 336 341 342 344 339 340 345 342 340 339 342 342 345 346 347 349 352 351 352 353 350 350 354 357 1 3 4 8 11 12 13 17 25 26 26 29 33
245 250 265 271 280 294 284 275 272 273 276 287 296 294 285 275 271 258 245 248 248 253 253 254 258 266 271 279 282 286 285 290 287 299 286 290 291 251 217 328 330 334 342 342 334 328 326 329 334 337 341 344 346 345 342 342 342 346 345 346 344 345 348 349 353 352 350 351 354 352 354 355 354 358 0 3 6 13 13 16 19 19 22 27 28 34 33
281 289 299 304 295 280 267 265 274 288 287 295 298 290 277 262 257 261 242 233 236 245 247 257 270 270 260 274 284 278 275 276 275 258 246 255 283 299 319 325 329 331 334 336 330 330 324 333 338 342 341 345 347 343 341 339 344 344 346 347 354 351 347 347 350 351 353 356 356 357 357 358 1 5 4 4 6 12 14 18 28 29 32 34 34 34 37
297 305 298 278 277 275 279 280 284 282 284 291 273 269 277 274 258 255 255 248 249 262 265 267 263 271 259 222 270 291 306 310 299 257 213 236 271 296 315 318 320 333 340 338 333 328 332 337 337 339 342 345 345 340 341 343 344 344 347 347 348 349 357 356 353 351 352 353 353 354 355 360 5 4 4 10 12 13 14 22 33 33 36 39 40 49 60
301 293 291 287 283 286 296 298 297 275 260 250 250 267 274 270 268 280 282 276 274 280 278 270 270 278 275 251 238 247 269 284 298 290 183 294 322 313 311 327 331 331 331 318 319 315 328 339 341 343 345 346 342 340 341 346 345 346 351 352 349 351 354 357 359 355 356 354 352 356 1 4 2 5 6 10 12 14 15 19 30 42 42 43 49 46 39
266 266 277 283 283 285 286 281 268 261 262 263 257 264 274 281 289 288 277 276 286 294 294 312 292 283 268 249 280 287 285 251 246 276 317 324 316 317 306 317 320 329 335 326 321 317 331 338 340 344 344 345 349 349 348 347 348 357 354 351 347 351 353 360 3 3 358 359 3 4 7 5 1 0 5 14 17 23 29 32 26 29 25 30 38 35 39
280 277 271 271 270 281 275 274 278 277 280 283 283 291 293 297 294 297 289 294 315 339 328 303 284 269 271 295 297 292 281 279 271 274 278 291 299 304 318 315 318 327 331 328 324 319 326 331 337 344 344 345 350 351 351 353 354 0 356 356 353 347 348 345 338 354 358 359 2 7 5 3 7 8 12 24 24 17 21 28 27 18 14 24 32 31 30
293 277 274 276 269 267 260 250 249 279 299 304 300 296 299 298 293 294 295 320 334 331 310 307 278 260 274 308 307 296 288 278 273 274 282 290 302 314 321 323 326 328 330 326 330 336 332 337 340 339 338 337 336 342 349 345 343 345 346 350 345 349 351 355 359 357 359 358 354 360 358 360 359 4 11 14 11 12 10 14 17 18 19 21 22 28 27
261 257 262 264 259 261 269 278 290 301 309 312 309 304 305 301 293 289 303 333 321 298 297 291 287 239 241 312 298 287 286 291 293 299 311 312 325 319 318 323 322 331 334 334 329 328 330 325 322 325 328 331 336 334 330 335 343 342 340 341 343 347 348 347 352 353 356 357 354 353 356 1 355 1 8 6 4 4 5 7 9 12 10 13 16 17 21